sat.trackr.live / text

‹ back to catalog

YAOGAN-17 01C

NORAD 39241 · 2013-046C

PAYLOAD ACTIVE UNKNOWN

§ Identity

Operator
Country
PRC
Launch date
2013-09-01
Launch site
JSC
Launch vehicle
Mass (kg)
RCS (m²)
2.74

External: N2YO · Heavens-Above · Gunter

§ Orbital elements

Epoch: 2026-09-13T04:05:17.587680Z

Period
107.02 min
Inclination
63.3839°
Eccentricity
0.0434888
Mean motion
13.45485305 rev/d
Perigee alt
764.2 km
Apogee alt
1,413.6 km
Semi-major
7,467.1 km
B*
-6.9903e-5
RAAN
222.6943°
Arg perigee
11.9133°
Mean anomaly
349.1792°
Rev number
64,021

§ Raw data

YAOGAN-17 01C1 39241U 13046C   26256.17034245 -.00000164  00000+0 -69903-4 0  99932 39241  63.3839 222.6943 0434888  11.9133 349.1792 13.45485305640210

JSON: /api/v1/satellites/39241 · /tle

For live sub-satellite position, see the globe view (requires WebGL).

§ Visibility from observer

Set your observer location to see the next 7 days of passes ≥ 10°. The values pass through the URL so the page stays shareable.

No JS? Fill the form by hand. The geolocation button needs JavaScript.